Location: Frizzleburg
(41.0764°N, 80.4548°W)
Time: 08:27:04
(UTC+00:00)

Cosmos 1825 - Pass Details

Date: 17 November 2019
Orbit: 504 x 508 km, 82.5° (Epoch: 07 December)

Event Time Altitude Azimuth Distance (km) Brightness Sun altitude
Rises 10:33:30 0° 175° (S) 2,589 5.9 -18.5°
Reaches altitude 10° 10:35:39 10° 170° (S) 1,710 5.1 -18.1°
Maximum altitude 10:39:17 50° 94° (E) 648 3.1 -17.4°
Drops below altitude 10° 10:42:56 10° 18° (NNE) 1,724 4.9 -16.7°
Sets 10:45:06 0° 14° (NNE) 2,614 5.8 -16.3°
